Regional Weather Roundup
Issued by NWS

Home | Current Version | Previous Version | Graphics & Text | Print | Product List | Glossary On
Versions: 1 2 3 4 5 6 7 8 9 10 11 12 13 14 15 16 17 18 19 20 21 22 23 24 25 26 27 28 29 30 31 32 33 34 35 36 37 38 39 40 41 42 43 44 45 46 47 48 49 50
671
ASUS43 KBIS 040402
RWRND

NORTH DAKOTA REGIONAL WEATHER ROUNDUP
NATIONAL WEATHER SERVICE BISMARCK ND
1000 PM CST SAT DEC 03 2016

NOTE: "FAIR" INDICATES FEW OR NO CLOUDS BELOW 12,000 FEET WITH NO
SIGNIFICANT WEATHER AND/OR OBSTRUCTIONS TO VISIBILITY.


NDZ001>003-009>011-017-040500-
NORTHWEST NORTH DAKOTA

CITY           SKY/WX    TMP DP  RH WIND       PRES   REMARKS
WILLISTON      FLURRIES  34  32  92 W10       29.74S
MINOT          LGT SNOW  30  27  88 S6        29.71F FOG
MINOT AFB      MIX PCPN  29  27  93 S10       29.70F FOG     WCI  19
$$

NDZ018>021-031>035-040>046-040500-
SOUTHWEST NORTH DAKOTA

CITY           SKY/WX    TMP DP  RH WIND       PRES   REMARKS
BISMARCK       CLOUDY    26  24  92 SE5       29.80F
DICKINSON      PTCLDY    31  29  92 W13       29.75S
GARRISON         N/A     30  28  92 SW10      29.73F
HETTINGER ARPT CLOUDY    34  30  85 W12       29.81F
$$

NDZ004>008-012>016-024-026-027-054-040500-
NORTHEAST NORTH DAKOTA

CITY           SKY/WX    TMP DP  RH WIND       PRES   REMARKS
GRAND FORKS    CLOUDY    32  29  88 SE18      29.91F
GRND FRKS AFB  CLOUDY    31  30  95 S14       29.90F
DEVILS LAKE    CLOUDY    32  30  92 SE14      29.81F
$$

NDZ022-023-025-028>030-036>039-047>053-040500-
SOUTHEAST NORTH DAKOTA

CITY           SKY/WX    TMP DP  RH WIND       PRES   REMARKS
FARGO          CLOUDY    34  31  88 S17       29.94F
JAMESTOWN      CLOUDY    33  31  92 S10       29.83F
$$





USA.gov is the U.S. government's official web portal to all federal, state and local government web resources and services.